TimeCST,TemperatureF,Dew PointF,Humidity,Sea Level PressureIn,VisibilityMPH,Wind Direction,Wind SpeedMPH,Gust SpeedMPH,PrecipitationIn,Events,Conditions,WindDirDegrees,DateUTC
12:15 AM,28.4,26.2,92,29.61,2.5,SSE,3.5,-,N/A,,Overcast,150,2013-02-14 06:15:00
12:35 AM,28.4,27.1,95,29.60,1.8,SE,3.5,-,N/A,,Overcast,140,2013-02-14 06:35:00
12:55 AM,28.8,27.9,96,29.59,1.5,SE,3.5,-,N/A,,Overcast,140,2013-02-14 06:55:00
1:15 AM,28.9,28.2,97,29.58,1.5,ESE,3.5,-,0.01,,Overcast,120,2013-02-14 07:15:00
1:35 AM,28.9,28.4,98,29.57,1.5,ESE,5.8,-,0.02,,Overcast,110,2013-02-14 07:35:00
1:55 AM,29.1,28.4,97,29.57,1.8,ESE,4.6,-,0.02,,Overcast,110,2013-02-14 07:55:00
2:15 AM,29.1,28.4,97,29.56,1.8,East,5.8,-,0.01,,Overcast,100,2013-02-14 08:15:00
2:35 AM,28.9,28.4,98,29.55,1.5,East,3.5,-,0.01,,Overcast,90,2013-02-14 08:35:00
2:55 AM,28.8,28.2,98,29.55,1.5,East,4.6,-,0.03,,Overcast,90,2013-02-14 08:55:00
3:15 AM,28.4,28.0,99,29.54,1.5,East,4.6,-,0.01,,Overcast,90,2013-02-14 09:15:00
3:35 AM,28.6,28.0,98,29.54,2.5,East,4.6,-,0.02,,Overcast,80,2013-02-14 09:35:00
3:55 AM,28.8,28.2,98,29.53,4.0,East,3.5,-,0.02,,Overcast,80,2013-02-14 09:55:00
4:15 AM,28.9,28.2,97,29.54,5.0,Calm,Calm,-,N/A,,Overcast,0,2013-02-14 10:15:00
4:35 AM,28.9,28.2,97,29.54,5.0,NNE,4.6,-,N/A,,Overcast,30,2013-02-14 10:35:00
4:55 AM,28.9,28.2,97,29.54,5.0,NNE,3.5,-,N/A,,Overcast,30,2013-02-14 10:55:00
5:15 AM,28.8,28.0,97,29.54,4.0,NNE,5.8,-,N/A,,Overcast,30,2013-02-14 11:15:00
5:35 AM,28.6,27.9,97,29.54,4.0,NNE,5.8,-,N/A,,Overcast,30,2013-02-14 11:35:00
5:55 AM,28.8,27.9,96,29.54,2.5,NNE,8.1,-,N/A,,Overcast,30,2013-02-14 11:55:00
6:15 AM,28.4,27.5,96,29.55,3.0,North,5.8,-,N/A,,Overcast,10,2013-02-14 12:15:00
6:35 AM,28.4,27.5,96,29.56,3.0,North,8.1,-,N/A,,Overcast,360,2013-02-14 12:35:00
6:55 AM,28.8,27.9,96,29.57,3.0,North,8.1,-,N/A,,Overcast,350,2013-02-14 12:55:00
7:15 AM,28.8,27.5,95,29.58,4.0,NNW,8.1,-,N/A,,Overcast,340,2013-02-14 13:15:00
7:35 AM,28.9,27.5,94,29.59,2.5,North,9.2,-,N/A,,Overcast,350,2013-02-14 13:35:00
7:55 AM,28.9,27.5,94,29.60,2.0,NNW,11.5,-,N/A,Snow,Light Snow,340,2013-02-14 13:55:00
8:15 AM,28.4,26.4,92,29.62,2.5,North,12.7,18.4,N/A,Snow,Light Snow,350,2013-02-14 14:15:00
8:35 AM,28.0,25.7,91,29.62,2.0,North,12.7,17.3,N/A,Snow,Light Snow,350,2013-02-14 14:35:00
8:55 AM,27.9,25.5,91,29.63,2.5,North,15.0,19.6,N/A,Snow,Light Snow,350,2013-02-14 14:55:00
9:15 AM,27.1,24.6,90,29.64,1.5,NNW,16.1,-,N/A,Snow,Light Snow,340,2013-02-14 15:15:00
9:35 AM,26.6,24.6,92,29.65,0.8,NNW,11.5,18.4,N/A,Snow,Light Snow,340,2013-02-14 15:35:00
9:55 AM,27.0,24.4,90,29.66,1.2,NNW,15.0,23.0,N/A,Snow,Light Snow,340,2013-02-14 15:55:00
10:15 AM,27.3,24.4,89,29.67,1.5,NNW,11.5,18.4,N/A,,Overcast,330,2013-02-14 16:15:00
10:35 AM,27.5,24.1,87,29.68,2.0,NW,10.4,18.4,N/A,,Overcast,320,2013-02-14 16:35:00
10:55 AM,28.0,24.6,87,29.69,3.0,NW,8.1,-,N/A,,Overcast,310,2013-02-14 16:55:00
11:15 AM,28.4,24.8,86,29.69,3.0,NW,9.2,-,N/A,,Overcast,320,2013-02-14 17:15:00
11:35 AM,28.4,23.9,83,29.70,4.0,NNW,11.5,16.1,N/A,,Overcast,330,2013-02-14 17:35:00
11:55 AM,28.4,24.1,84,29.70,5.0,NW,9.2,-,N/A,,Overcast,320,2013-02-14 17:55:00
12:15 PM,28.4,23.7,83,29.71,7.0,NW,8.1,-,N/A,Snow,Light Snow,320,2013-02-14 18:15:00
12:35 PM,28.8,23.4,80,29.71,10.0,NW,9.2,-,N/A,Snow,Light Snow,320,2013-02-14 18:35:00
12:55 PM,28.9,22.8,78,29.72,3.0,NW,10.4,16.1,N/A,Snow,Light Snow,320,2013-02-14 18:55:00
1:15 PM,28.4,23.9,83,29.73,2.5,WNW,6.9,-,N/A,Snow,Light Snow,300,2013-02-14 19:15:00
1:35 PM,28.2,23.9,84,29.74,2.0,NW,6.9,-,N/A,Snow,Light Snow,310,2013-02-14 19:35:00
1:55 PM,28.4,24.1,84,29.74,2.0,NW,10.4,17.3,N/A,Snow,Light Snow,310,2013-02-14 19:55:00
2:15 PM,29.1,23.4,79,29.75,7.0,WNW,8.1,-,N/A,Snow,Light Snow,290,2013-02-14 20:15:00
2:35 PM,29.5,23.4,78,29.76,5.0,NW,12.7,-,N/A,Snow,Light Snow,310,2013-02-14 20:35:00
2:55 PM,29.8,22.3,73,29.77,10.0,NW,10.4,17.3,N/A,,Overcast,310,2013-02-14 20:55:00
3:15 PM,29.5,22.3,75,29.78,10.0,WNW,9.2,-,N/A,Snow,Light Snow,300,2013-02-14 21:15:00
3:35 PM,29.3,21.6,73,29.79,10.0,NW,9.2,-,N/A,Snow,Light Snow,310,2013-02-14 21:35:00
3:55 PM,29.3,21.4,72,29.80,10.0,WNW,5.8,-,N/A,Snow,Light Snow,290,2013-02-14 21:55:00
4:15 PM,29.3,19.9,68,29.81,10.0,NW,8.1,-,N/A,,Overcast,310,2013-02-14 22:15:00
4:35 PM,29.3,19.0,66,29.82,10.0,NW,8.1,16.1,N/A,,Overcast,310,2013-02-14 22:35:00
4:55 PM,29.1,18.3,64,29.83,10.0,WNW,6.9,-,N/A,,Overcast,290,2013-02-14 22:55:00
5:15 PM,28.9,18.5,65,29.85,10.0,WNW,3.5,-,N/A,,Overcast,300,2013-02-14 23:15:00
5:35 PM,28.4,18.7,67,29.86,10.0,WNW,4.6,-,N/A,,Overcast,300,2013-02-14 23:35:00
5:55 PM,28.2,19.4,70,29.86,10.0,WNW,5.8,-,N/A,,Overcast,300,2013-02-14 23:55:00
6:15 PM,27.5,20.1,74,29.88,10.0,WNW,9.2,17.3,N/A,Snow,Light Snow,290,2013-02-15 00:15:00
6:35 PM,27.0,20.7,77,29.88,10.0,WNW,8.1,-,N/A,,Overcast,300,2013-02-15 00:35:00
6:55 PM,26.6,21.4,81,29.89,10.0,NW,10.4,-,N/A,Snow,Light Snow,320,2013-02-15 00:55:00
7:15 PM,25.7,21.7,85,29.90,4.0,NNW,10.4,-,N/A,Snow,Light Snow,330,2013-02-15 01:15:00
7:35 PM,25.0,18.0,75,29.91,10.0,North,13.8,19.6,N/A,,Overcast,350,2013-02-15 01:35:00
7:55 PM,24.1,16.7,73,29.93,10.0,NNW,11.5,19.6,N/A,,Overcast,340,2013-02-15 01:55:00
8:15 PM,23.7,16.7,75,29.93,10.0,North,12.7,-,N/A,,Overcast,350,2013-02-15 02:15:00
8:35 PM,23.0,15.4,73,29.94,10.0,NNW,13.8,18.4,N/A,,Overcast,330,2013-02-15 02:35:00
8:55 PM,22.1,13.3,69,29.95,10.0,NNW,12.7,17.3,N/A,,Overcast,330,2013-02-15 02:55:00
9:35 PM,20.7,12.0,69,29.97,10.0,NNW,9.2,16.1,N/A,,Overcast,330,2013-02-15 03:35:00
9:36 PM,19.4,12.2,74,29.97,10.0,NNW,9.2,-,N/A,,Overcast,330,2013-02-15 03:36:00
9:55 PM,19.9,10.9,68,29.98,10.0,NNW,13.8,20.7,N/A,,Overcast,330,2013-02-15 03:55:00
10:15 PM,18.7,10.6,71,29.99,10.0,NW,9.2,23.0,N/A,,Overcast,320,2013-02-15 04:15:00
10:35 PM,17.8,9.1,69,30.00,10.0,NNW,13.8,21.9,N/A,,Overcast,330,2013-02-15 04:35:00
10:55 PM,17.1,6.8,64,30.01,10.0,NNW,10.4,18.4,N/A,,Overcast,340,2013-02-15 04:55:00
11:15 PM,16.7,6.6,65,30.01,10.0,NNW,5.8,-,N/A,,Overcast,330,2013-02-15 05:15:00
11:35 PM,16.2,6.4,66,30.01,10.0,NW,5.8,-,N/A,,Scattered Clouds,310,2013-02-15 05:35:00
11:55 PM,15.6,6.4,67,30.02,10.0,WNW,5.8,-,N/A,,Scattered Clouds,300,2013-02-15 05:55:00